Lake Clark National Park, AK

6:24 PM AKST on February 08, 2016 (GMT -0900)
Sparrevohn | | Change Station
CLOSE
Current Station
Airport
Location: Sparrevohn,
Elevation: 1588 ft
Nearby Weather Stations

Elev 1588 ft 61.10 °N, 155.57 °W | Updated 29 minutes ago

Mostly Cloudy
Mostly Cloudy
37 °F
Feels Like 28 °F
N
15
Wind Variable Wind from East

Today
High -- | Low -- °F
--% Chance of Precip.
Yesterday
High -- | Low -- °F
Precip. -- in
Pressure 29.62 in
Visibility 10.0 miles
Clouds Mostly Cloudy 17000 ft
Windchill 28 °F
Dew Point 20 °F
Humidity 50%
Rainfall 0.00 in
Snow Depth Not available.
9:16 AM 5:48 PM
New Moon, 0% visible
METAR PASV 090255Z AUTO 09013KT 10SM BKN170 03/M07 A2956 RMK AO2 SLP028 T00261068 52007
Pressure 29.62 in
Visibility 10.0 miles
Clouds Mostly Cloudy 17000 ft
Windchill 28 °F
Dew Point 20 °F
Humidity 50%
Rainfall 0.00 in
Snow Depth Not available.
9:16 AM 5:48 PM
New Moon, 0% visible
METAR PASV 090255Z AUTO 09013KT 10SM BKN170 03/M07 A2956 RMK AO2 SLP028 T00261068 52007

10-Day Weather Forecast

Almanac

Astronomy

Feb. 08, 2016 Rise Set
Actual Time
Civil Twilight
Nautical Twilight
Astronomical Twilight
Moon
Length of Visible Light
Length of Day
Tomorrow will be .
, % of the Moon is Illuminated

Today's Extremes

State Highs State Lows

Community

WunderPhotos

Upload Photos

1,891,527 photos uploaded!

WunderBlog® & News

Nearby

Air Quality

  Air Quality AQ Index Pollutant
Not available.

Snow Depth

Station Depth Elevation

Earthquake Activity

City Distance Mag. Time & Date
Minimum magnitude displayed is 2.5.

Coastal Water Temperatures

Place Temperature

Stations

Nearby Weather Stations

Station Location Temp. Windchill Dew Point Humidity Wind Precip. Elev Updated Type
                   

Watches & Warnings

There are currently no watches in effect.